Wind_Speed
62 62 62 62 62 62 62 63 63 62 60 58 59 60 60 61 61 61 61 60 60 59 58 57 56 55 54 54 54 53 53 52 51 50 49 48 48 47
62 62 61 61 61 61 61 62 62 63 62 59 59 60 61 61 62 62 62 61 60 60 59 59 58 57 56 56 55 55 54 54 53 52 52 51 50 50
60 60 61 61 61 61 61 61 62 62 61 59 58 59 60 61 61 62 62 62 61 60 60 60 60 58 58 58 57 56 56 56 56 55 53 53 53 52
59 59 59 60 59 60 60 60 60 60 60 58 58 58 58 59 60 60 61 61 61 61 61 61 61 60 60 59 58 58 58 57 57 58 57 55 54 54
56 57 57 58 58 57 57 57 57 58 58 57 57 56 56 57 58 59 59 60 60 61 61 62 62 61 61 61 60 60 60 59 59 59 58 57 56 55
54 54 55 56 56 55 55 56 56 57 57 57 57 56 56 56 57 57 58 59 59 60 61 61 62 61 61 61 61 60 60 60 59 59 59 58 57 56
51 51 52 53 53 54 54 54 54 54 55 56 56 56 56 55 55 56 57 57 58 58 59 59 61 61 61 61 61 61 60 59 59 59 59 58 58 58
51 50 50 51 52 53 53 53 52 52 53 54 54 54 55 55 55 55 55 56 56 56 57 57 59 59 60 60 60 60 59 60 59 58 58 58 58 58
49 49 48 48 50 50 50 49 49 49 50 51 52 51 52 53 54 54 54 54 54 54 55 55 56 57 57 58 58 59 59 59 58 58 57 57 58 57
46 46 46 46 46 47 48 47 46 46 47 49 49 49 49 50 51 52 52 53 52 52 53 52 52 54 55 56 58 58 59 59 58 58 57 57 57 57
45 45 45 45 45 45 46 44 44 44 44 45 45 47 48 49 50 50 51 51 51 50 50 51 50 51 53 54 55 56 57 57 57 57 56 56 56 56
45 45 44 44 44 44 45 44 43 42 42 42 43 43 45 47 48 49 49 50 50 48 48 49 49 50 50 51 53 54 55 56 56 56 55 55 55 55
43 43 43 43 43 43 43 43 42 41 41 41 41 42 42 44 45 46 46 47 47 46 46 47 48 49 49 49 50 51 52 53 54 55 55 55 55 55
41 41 41 41 40 40 41 41 41 41 40 40 40 41 41 42 43 44 44 44 45 45 44 45 46 47 47 46 47 48 48 50 51 52 53 53 54 54
40 40 40 39 38 39 39 40 40 40 40 40 39 40 40 41 42 42 42 43 43 43 42 43 44 45 45 45 45 46 47 47 48 49 50 51 50 51
38 38 38 38 38 38 37 37 38 38 38 38 38 38 39 39 40 41 41 42 42 42 41 41 42 43 43 43 43 44 45 45 46 46 47 48 48 49
36 36 36 36 36 36 35 35 36 37 37 36 37 37 38 39 39 39 40 40 40 40 40 40 40 40 40 40 40 41 42 42 42 44 45 46 47 47
33 32 33 34 34 34 34 34 35 36 37 36 36 36 37 38 38 38 39 39 39 39 39 39 39 39 39 39 39 40 40 41 41 42 42 43 44 44
31 30 31 32 32 32 33 33 33 34 34 35 36 36 36 36 36 37 37 38 38 38 38 38 39 40 40 39 39 39 39 39 40 40 41 42 42 42
29 29 29 30 31 32 32 33 32 32 33 34 35 35 35 35 35 35 36 37 37 38 38 38 39 40 40 39 38 38 39 39 39 40 40 40 41 41
27 27 27 28 29 30 30 31 31 31 32 33 33 34 34 34 34 34 35 35 36 37 37 38 38 39 39 39 38 38 38 39 39 39 39 39 40 40
27 27 27 27 28 29 29 30 30 30 31 31 31 32 32 32 33 34 34 34 34 34 34 35 36 37 37 37 37 38 38 38 39 38 38 38 38 39
26 26 27 27 27 27 27 28 28 28 29 29 29 30 31 31 32 32 33 34 33 33 33 33 34 34 35 34 34 34 35 36 36 36 36 37 37 37
Wind_Direction
265 264 263 263 263 262 263 262 262 260 258 256 256 256 256 255 254 254 254 253 253 252 251 251 251 251 251 252 253 253 254 254 255 256 256 256 257 257
265 264 263 263 263 262 262 262 262 261 259 257 256 255 254 254 254 254 253 252 252 251 251 250 250 250 251 251 252 252 253 254 255 255 255 255 256 256
265 264 263 262 262 261 261 261 261 261 260 258 257 255 254 254 254 254 253 252 251 251 250 250 250 250 250 251 251 251 252 253 253 254 255 255 255 256
265 264 263 262 262 261 261 260 260 260 260 258 257 256 254 254 254 253 253 252 251 251 250 250 250 250 250 250 251 251 252 252 253 253 254 255 255 255
266 264 263 262 261 260 260 260 259 259 258 258 257 256 255 255 254 253 253 252 252 252 251 250 250 250 250 250 250 251 252 252 253 254 254 254 255 255
267 265 264 262 260 259 259 260 259 259 258 258 257 256 255 255 254 253 253 253 252 252 252 251 250 250 250 249 250 251 251 252 253 253 254 254 255 256
266 264 263 261 261 259 259 259 261 260 259 258 257 256 255 254 254 254 253 253 252 252 252 252 251 251 250 250 249 250 251 251 252 253 253 254 255 256
266 264 263 262 261 260 259 259 260 260 259 258 257 256 255 255 254 254 254 253 252 252 252 251 252 251 250 250 249 249 250 251 251 252 253 254 254 255
266 264 263 263 262 260 258 259 260 260 259 258 257 256 255 255 254 254 253 253 252 250 250 250 251 251 251 250 249 249 249 250 251 252 253 253 254 255
266 265 264 263 261 261 259 259 259 259 258 257 257 256 255 254 254 253 253 252 251 250 250 251 250 251 250 250 250 250 249 250 251 252 252 253 253 254
266 265 265 263 261 260 259 259 259 258 256 256 256 254 253 253 254 253 253 252 251 250 251 252 251 251 251 252 251 250 250 250 250 251 252 252 252 253
266 265 264 263 260 260 259 258 258 257 257 255 255 254 253 253 254 253 253 253 252 250 251 252 253 252 251 251 251 250 250 250 250 251 251 252 252 253
266 264 262 262 261 259 258 258 258 257 256 255 254 254 254 254 254 253 252 253 252 250 250 252 252 252 252 251 251 251 251 250 250 251 251 252 253 253
267 264 261 260 259 257 257 257 258 258 257 255 254 254 253 253 253 253 252 252 252 250 250 251 251 251 252 252 251 251 251 251 250 250 251 252 254 254
267 264 261 259 258 257 257 257 257 257 257 256 255 254 253 253 253 252 252 251 250 250 249 250 250 250 251 251 250 250 250 251 250 250 251 253 253 254
265 262 259 258 257 257 257 257 256 256 256 255 254 253 253 253 253 252 252 251 250 250 249 250 250 250 250 251 250 250 250 250 250 250 252 252 253 253
262 260 257 255 255 256 256 255 255 256 255 255 254 253 252 252 253 253 252 251 250 249 249 250 251 251 251 250 251 250 249 249 250 250 251 252 252 254
261 259 256 254 253 253 254 254 254 254 254 254 254 253 252 252 253 252 251 249 249 248 247 249 250 250 250 251 251 250 249 249 249 250 250 251 253 253
261 259 256 254 252 251 252 252 252 253 254 253 253 253 252 252 252 251 250 248 247 246 246 248 248 248 249 250 251 251 250 249 249 249 250 252 253 253
262 260 258 255 253 251 252 252 252 253 254 254 253 252 251 250 250 251 249 247 245 244 245 247 248 248 249 249 248 249 249 250 250 250 251 253 254 254
263 262 259 257 255 253 253 253 253 254 254 253 253 252 250 249 249 249 249 248 246 245 245 247 247 249 248 248 247 247 249 251 251 251 252 254 254 254
263 261 258 256 255 255 254 253 253 253 252 251 252 251 249 249 250 249 248 247 247 246 246 246 246 248 248 248 248 248 248 251 252 252 253 254 255 255
260 260 258 255 254 254 253 252 251 252 251 251 251 250 250 250 251 251 250 248 245 245 245 245 246 248 248 247 246 247 249 250 250 252 255 255 255 256
Height
5597 5599 5600 5602 5604 5605 5607 5609 5613 5617 5623 5627 5628 5629 5630 5633 5636 5640 5644 5649 5653 5657 5661 5665 5670 5673 5677 5681 5685 5688 5692 5694 5698 5701 5704 5707 5710 5712
5578 5580 5581 5583 5585 5587 5588 5590 5592 5596 5601 5608 5609 5611 5612 5615 5618 5621 5626 5630 5635 5640 5644 5649 5653 5658 5662 5666 5669 5673 5677 5680 5684 5687 5690 5693 5696 5699
5560 5561 5563 5564 5566 5568 5570 5572 5574 5576 5580 5587 5589 5592 5594 5597 5600 5603 5608 5612 5617 5622 5627 5632 5636 5641 5645 5650 5654 5657 5662 5665 5669 5673 5676 5679 5682 5686
5542 5543 5544 5546 5548 5550 5552 5554 5556 5558 5561 5567 5571 5574 5576 5579 5582 5585 5590 5594 5599 5604 5609 5614 5619 5624 5629 5633 5638 5642 5646 5650 5654 5658 5662 5666 5669 5671
5524 5525 5527 5528 5530 5532 5534 5537 5539 5541 5544 5548 5553 5556 5559 5561 5564 5568 5572 5577 5582 5586 5591 5596 5601 5606 5611 5616 5621 5625 5630 5635 5639 5643 5646 5650 5653 5657
5507 5508 5510 5511 5513 5515 5518 5520 5522 5524 5527 5530 5534 5538 5542 5544 5547 5551 5556 5560 5565 5569 5573 5578 5583 5588 5593 5599 5605 5609 5613 5617 5622 5626 5630 5634 5638 5641
5492 5492 5493 5495 5497 5499 5501 5504 5505 5507 5510 5513 5517 5521 5525 5528 5531 5535 5539 5543 5547 5551 5555 5561 5566 5571 5575 5581 5586 5591 5596 5600 5605 5609 5613 5618 5621 5625
5476 5477 5478 5479 5481 5483 5485 5488 5490 5491 5494 5497 5500 5504 5508 5511 5515 5518 5521 5526 5532 5537 5539 5544 5548 5553 5558 5563 5568 5573 5578 5583 5588 5593 5597 5601 5605 5609
5460 5461 5463 5464 5466 5468 5470 5473 5475 5476 5479 5482 5485 5488 5492 5496 5499 5502 5505 5509 5515 5518 5521 5527 5531 5536 5541 5546 5551 5556 5561 5566 5571 5576 5580 5584 5589 5593
5446 5447 5448 5450 5452 5453 5456 5459 5461 5463 5465 5467 5471 5474 5476 5479 5482 5486 5489 5493 5498 5502 5506 5512 5516 5520 5525 5529 5534 5539 5544 5549 5554 5559 5564 5568 5572 5576
5432 5433 5434 5436 5439 5439 5442 5445 5448 5449 5451 5453 5456 5458 5461 5464 5467 5470 5474 5478 5483 5489 5492 5496 5501 5505 5509 5513 5518 5523 5528 5533 5538 5543 5547 5551 5556 5560
5420 5420 5421 5422 5424 5425 5428 5431 5434 5436 5438 5440 5442 5445 5447 5450 5453 5456 5460 5464 5468 5474 5478 5481 5486 5489 5494 5499 5503 5507 5511 5516 5521 5526 5531 5535 5539 5543
5406 5408 5409 5409 5411 5413 5415 5418 5421 5423 5425 5427 5429 5432 5434 5437 5440 5443 5446 5450 5455 5460 5464 5467 5471 5474 5478 5484 5488 5491 5496 5500 5505 5510 5514 5519 5523 5528
5393 5395 5396 5397 5399 5401 5403 5406 5408 5410 5412 5414 5417 5419 5422 5424 5427 5430 5433 5436 5441 5446 5450 5453 5457 5461 5464 5469 5474 5478 5481 5485 5490 5495 5499 5504 5508 5512
5381 5382 5384 5385 5387 5390 5392 5394 5396 5398 5400 5402 5405 5407 5409 5412 5414 5417 5420 5424 5428 5432 5436 5440 5443 5447 5451 5455 5460 5464 5467 5471 5475 5480 5484 5489 5493 5497
5370 5371 5372 5374 5376 5378 5381 5383 5385 5387 5389 5391 5393 5396 5398 5400 5402 5405 5408 5412 5416 5420 5424 5427 5431 5434 5438 5442 5446 5450 5454 5458 5462 5466 5471 5475 5479 5483
5360 5361 5362 5363 5365 5367 5370 5372 5374 5376 5378 5380 5382 5384 5387 5389 5391 5394 5396 5399 5404 5408 5413 5416 5419 5422 5426 5429 5433 5437 5441 5445 5449 5453 5458 5462 5466 5469
5349 5351 5352 5353 5355 5358 5360 5362 5364 5366 5368 5370 5372 5374 5376 5378 5380 5383 5385 5388 5392 5396 5401 5404 5408 5411 5414 5418 5422 5425 5429 5433 5437 5441 5445 5449 5453 5457
5339 5341 5342 5344 5346 5348 5350 5352 5354 5356 5357 5359 5361 5363 5365 5368 5370 5372 5375 5378 5381 5385 5390 5393 5396 5399 5403 5408 5411 5414 5417 5421 5425 5429 5433 5437 5442 5445
5330 5332 5333 5335 5337 5339 5341 5343 5344 5346 5348 5349 5351 5354 5356 5358 5360 5362 5365 5368 5371 5375 5379 5382 5385 5389 5392 5396 5400 5403 5406 5410 5414 5418 5421 5425 5429 5433
5322 5323 5324 5326 5328 5330 5332 5333 5335 5337 5338 5340 5342 5344 5346 5348 5351 5353 5356 5358 5361 5365 5369 5372 5375 5377 5380 5384 5389 5393 5396 5399 5403 5407 5410 5414 5417 5421
5313 5315 5316 5317 5319 5321 5323 5324 5326 5328 5330 5331 5333 5335 5337 5339 5342 5344 5346 5349 5352 5355 5358 5362 5364 5367 5370 5374 5378 5382 5386 5389 5392 5395 5399 5403 5406 5410
5305 5306 5307 5309 5311 5312 5314 5316 5317 5319 5321 5323 5324 5326 5328 5330 5333 5335 5337 5340 5343 5346 5349 5352 5355 5358 5361 5364 5368 5372 5376 5379 5382 5385 5389 5392 5395 5398